Regional Weather Roundup
Issued by NWS

Home | Current Version | Previous Version | Text Only | Print | Product List | Glossary On
Versions: 1 2 3 4 5 6 7 8 9 10 11 12 13 14 15 16 17 18 19 20 21 22 23 24 25 26 27 28 29 30 31 32 33 34 35 36 37 38 39 40 41 42 43 44 45 46 47 48 49 50
000
ASUS43 KDTX 011710
RWRMI
MICHIGAN HOURLY REGIONAL WEATHER ROUNDUP
NATIONAL WEATHER SERVICE DETROIT/PONTIAC MI
100 PM EDT TUE SEP 01 2015

NOTE: "FAIR" INDICATES FEW OR NO CLOUDS BELOW 12,000 FEET WITH NO
SIGNIFICANT WEATHER AND/OR OBSTRUCTION TO VISIBILITY.

MIZ047>049-052>055-059>063-066>070-074>076-081>083-011800-
SOUTHEAST LOWER MICHIGAN

CITY           SKY/WX    TMP DP  RH WIND       PRES   REMARKS
ADRIAN         MOSUNNY   87  67  51 SW9       30.10F HX  90
ALMA           MOSUNNY   83  72  69 CALM      30.07F
ANN ARBOR      PTSUNNY   87  69  54 W8        30.09F HX  91
BAD AXE        CLOUDY    79  69  71 W3        30.08F
CARO           SUNNY     83  71  67 W7        30.07F
DETROIT CITY   PTSUNNY   85  66  53 CALM      30.08F
DETROIT        MOSUNNY   86  69  56 S6        30.09F HX  90
FLINT          MOSUNNY   87  69  54 SW8       30.08F HX  91
GROSSE ILE     SUNNY     79  73  83 SE7       30.08F HAZE
HILLSDALE      MOSUNNY   84  70  62 S6        30.12S
HOWELL         PTSUNNY   86  67  53 SW7       30.09F

CITY           SKY/WX    TMP DP  RH WIND       PRES   REMARKS
JACKSON        MOSUNNY   82  68  62 SW7       30.10F
LAMBERTVILLE   MOSUNNY   87  70  58 SW5       30.10F HX  91
LANSING        MOSUNNY   83  69  62 W8        30.08F
LAPEER         FAIR      83  68  60 W5        30.08F
MASON          MOSUNNY   83  66  54 SW5       30.09F
MONROE         PTSUNNY   87  70  56 SW6       30.08F HX  91
MT. CLEMENS    MOSUNNY   80  71  75 E8        30.07F
PONTIAC        PTSUNNY   84  68  58 W7        30.08F
PORT HOPE        N/A     80  69  69 VRB5      30.05F
PORT HURON     PTSUNNY   81  70  69 W5        30.08F
TRI CITIES     SUNNY     83  71  67 SW6       30.07F
MIDLAND        FAIR      84  69  59 CALM      30.05F
TROY           PTSUNNY   87  67  51 W7        30.10S HX  90
SAGINAW HB     SUNNY     82  72  69 SW6       30.06S
$$
MIZ043>046-050>051-056>058-064>065-071>073-077>080-011800-
SOUTHWEST LOWER MICHIGAN

CITY           SKY/WX    TMP DP  RH WIND       PRES   REMARKS
BATTLE CREEK   MOSUNNY   85  70  60 SW9       30.09F
BENTON HARBOR  MOSUNNY   84  73  69 S9        30.06F HX  90
BIG RAPIDS     MOSUNNY   83  70  64 SW9       30.05F
COLDWATER      PTSUNNY   84  70  63 S7        30.10F
FREMONT        FAIR      83  75  75 S7        30.04F HX  90
HOLLAND        SUNNY     85  73  67 SW9       30.07F HX  91
GRAND RAPIDS   MOSUNNY   85  72  65 SW7       30.06F HX  91
IONIA          FAIR      85  69  58 SW7       30.06F
KALAMAZOO      PTSUNNY   85  70  60 S10       30.08F
LUDINGTON      SUNNY     83  73  72 SW8       30.02F
MARSHALL       MOSUNNY   84  69  62 S7        30.09F
MOUNT PLEASANT MOSUNNY   87  70  56 W3        30.05F HX  91
MUSKEGON       SUNNY     82  70  66 S12       30.05F
SOUTH HAVEN    MOSUNNY   84  72  68 S6        30.06F
$$
MIZ016>042-011800-
NORTHERN LOWER MICHIGAN

CITY           SKY/WX    TMP DP  RH WIND       PRES   REMARKS
ALPENA         MOSUNNY   82  68  62 W5        30.03F
BEAVER ISLAND  SUNNY     79  69  69 SW14G20   30.00S
BELLAIRE       SUNNY     84  69  61 S6        30.00F
CADILLAC       MOSUNNY   83  71  66 W8        30.05F
CHARLEVOIX     SUNNY     83  70  65 S5        30.03S
FRANKFORT      SUNNY     83  72  68 S9        30.00F
GAYLORD        MOSUNNY   80  69  69 W6        30.05F
GRAYLING       MOSUNNY   82  69  62 W7        30.05F
HARBOR SPRINGS SUNNY     79  69  73 CALM      30.00F
HOUGHTON LAKE  SUNNY     81  69  67 SW6       30.06F
MANISTEE       MOSUNNY   84  72  65 S9        30.02F
OSCODA         PTSUNNY   83  69  61 W5        30.04F
PELLSTON       SUNNY     83  70  64 SW8       30.00F
ROGERS CITY    MOSUNNY   83  69  61 W7        30.02S
TRAVERSE CITY  MOSUNNY   86  70  58 VRB7      29.99F HX  90
$$
MIZ007>008-015-011800-
EASTERN UPPER MICHIGAN

CITY           SKY/WX    TMP DP  RH WIND       PRES   REMARKS
KINROSS        MOSUNNY   81  72  74 W10       29.99F
MACKINAC ISLAN PTSUNNY   76  69  77 W7        30.00F
NEWBERRY       MOSUNNY   80  69  68 S13       29.98F
MUNISING         N/A     84  72  67 S7        29.93F
$$
MIZ004>006-011>014-085-011800-
CENTRAL UPPER MICHIGAN

CITY           SKY/WX    TMP DP  RH WIND       PRES   REMARKS
MANISTIQUE     PTSUNNY   71  66  83 S10       29.98F
ESCANABA       PTSUNNY   73  66  78 S6        29.96F
MENOMINEE      MOSUNNY   81  70  69 SW6       29.95F
SAWYER-GWINN   SUNNY     81  70  69 S9        29.96F
$$
MIZ001>003-009>011-084-011800-
WESTERN UPPER MICHIGAN

CITY           SKY/WX    TMP DP  RH WIND       PRES   REMARKS
IRON MOUNTAIN  PTSUNNY   83  71  67 S7        29.95F
HOUGHTON       PTSUNNY   80  69  69 W10       29.91S
IRONWOOD       PTSUNNY   79  70  73 SW12      29.90S
$$

ABBREVIATIONS USED IN REMARKS
   TC - TEMPERATURE IN CELSIUS
  WCI - WIND CHILL INDEX
   HX - HEAT INDEX
  VSB - VISIBILITY



USA.gov is the U.S. government's official web portal to all federal, state and local government web resources and services.